Location: Ward Pound Ridge Reservation
(41.2500°N, 73.6000°W)
Time: 21:58:40
(UTC-04:00)

Tiangong 1 - Pass Details

Date: 09 October 2017
Orbit: 292 x 319 km, 42.8° (Epoch: 23 October)

Event Time Altitude Azimuth Distance (km) Brightness Sun altitude
Rises 19:09:06 0° 266° (W) 2,042 7.1 -9.5°
Reaches altitude 10° 19:11:06 10° 269° (W) 1,207 5.2 -9.9°
Maximum altitude 19:13:47 66° 352° (N) 343 0.8 -10.4°
Enters shadow 19:15:35 18° 73° (ENE) 842 2.2 -10.8°
